,

(GMT )
Debert

Weather History for CZDB - August, 2013

Change the Weather History Date:

Saturday, August 3, 2013

  Actual Average Record
Temperature  
Mean Temperature 71 °F -  
Max Temperature 81 °F - - ()
Min Temperature 60 °F - - ()
Cooling Degree Days 6    
Growing Degree Days 21 (Base 50)    
Moisture  
Dew Point 61 °F    
Average Humidity 81    
Maximum Humidity 94    
Minimum Humidity 41    
Precipitation  
Precipitation 0.04 in - - ()
Sea Level Pressure  
Sea Level Pressure 29.77 in    
Wind  
Wind Speed 6 mph ()    
Max Wind Speed 16 mph    
Max Gust Speed 22 mph    
T = Trace of Precipitation, MM = Missing Value Source: Averaged Metar Reports

Daily Weather History Graph

Daily Weather History Graph

Search for Another Location

Airport or City:

Trip Planner

Search our weather history database for the weather conditions in past years. The results will help you decide how hot, cold, wet, or windy it might be!

Date:

Astronomy

Aug. 03, 2013 Rise Set
Actual Time 6:00 AM ADT 8:38 PM ADT
Civil Twilight 5:26 AM ADT 9:12 PM ADT
Nautical Twilight 4:44 AM ADT 9:54 PM ADT
Astronomical Twilight 3:54 AM ADT 10:43 PM ADT
Moon 3:04 AM ADT (8/3) 6:19 PM ADT (8/3)
Length of Visible Light 15h 45m
Length of Day
14h 38m
Waning Crescent, 10% of the Moon is Illuminated
Aug 3
Waning Crescent
Aug 6
New
Aug 14
First Quarter
Aug 20
Full
Aug 28
Last Quarter

Hourly Weather History & Observations

Time (ADT) Temp. Dew Point Humidity Pressure Visibility Wind Dir Wind Speed Gust Speed Precip Events Conditions
12:00 AM 63.5 °F 60.3 °F 89% 29.81 in - SSW 4.6 mph - N/A   Unknown
1:00 AM 63.0 °F 59.7 °F 89% 29.81 in - SSW 8.1 mph - N/A   Unknown
2:00 AM 62.2 °F 59.5 °F 91% 29.81 in - SSW 2.3 mph - N/A   Unknown
3:00 AM 62 °F 60 °F 91% 29.80 in - SW 4.6 mph - -  
3:00 AM 62.2 °F 60.1 °F 93% 29.80 in - SW 4.6 mph - N/A   Unknown
4:00 AM 62.4 °F 60.1 °F 92% 29.79 in - WSW 5.8 mph - N/A   Unknown
5:00 AM 62.1 °F 59.7 °F 92% 29.79 in - WSW 5.8 mph - N/A   Unknown
6:00 AM 61.2 °F 59.4 °F 94% 29.80 in - West 5.8 mph - N/A   Unknown
7:00 AM 61.5 °F 59.4 °F 93% 29.80 in - West 6.9 mph - N/A   Unknown
8:00 AM 61.5 °F 58.6 °F 90% 29.81 in - WSW 10.4 mph - N/A   Unknown
9:00 AM 63 °F 59 °F 83% 29.82 in - WSW 9.2 mph - -  
9:00 AM 63.0 °F 59.2 °F 87% 29.82 in - WSW 9.2 mph - N/A   Unknown
10:00 AM 63.5 °F 59.4 °F 86% 29.82 in - WSW 9.2 mph - N/A   Unknown
11:00 AM 70.0 °F 62.4 °F 77% 29.81 in - West 8.1 mph - N/A   Unknown
12:00 PM 74.1 °F 63.7 °F 70% 29.80 in - WSW 5.8 mph - N/A   Unknown
1:00 PM 75.9 °F 62.1 °F 62% 29.78 in - SW 6.9 mph - N/A   Unknown
2:00 PM 79.2 °F 64.6 °F 61% 29.75 in - SSW 9.2 mph - N/A   Unknown
3:00 PM 80 °F 61 °F 41% 29.73 in - SW 10.4 mph - -  
3:00 PM 79.5 °F 60.6 °F 52% 29.73 in - SW 10.4 mph - N/A   Unknown
4:00 PM 77.4 °F 59.7 °F 54% 29.70 in - SSW 16.1 mph 21.9 mph N/A   Unknown
5:00 PM 68.0 °F 62.2 °F 82% 29.70 in - NW 9.2 mph - N/A   Unknown
6:00 PM 69.1 °F 61.7 °F 77% 29.70 in - NW 5.8 mph - N/A   Unknown
7:00 PM 70.0 °F 63.0 °F 78% 29.70 in - West 5.8 mph - N/A   Unknown
8:00 PM 65.7 °F 62.2 °F 89% 29.70 in - West 6.9 mph - 0.04 in   Unknown
9:00 PM 64 °F 61 °F 86% 29.72 in - WSW 8.1 mph - -  
9:00 PM 63.5 °F 60.8 °F 91% 29.72 in - WSW 8.1 mph - N/A   Unknown
10:00 PM 61.9 °F 59.9 °F 93% 29.73 in - WSW 4.6 mph - N/A   Unknown
11:00 PM 60.8 °F 58.8 °F 93% 29.73 in - West 6.9 mph - N/A   Unknown